Year,Month,Day,Hour,Minute,Value (Times are PST for temperature in C)
2018,09,14,00,00,11.80
2018,09,14,00,01,11.80
2018,09,14,00,02,11.80
2018,09,14,00,03,11.80
2018,09,14,00,04,11.80
2018,09,14,00,05,11.80
2018,09,14,00,06,11.80
2018,09,14,00,07,11.80
2018,09,14,00,08,11.80
2018,09,14,00,09,11.80
2018,09,14,00,10,11.80
2018,09,14,00,11,11.80
2018,09,14,00,12,11.80
2018,09,14,00,13,11.70
2018,09,14,00,14,11.70
2018,09,14,00,15,11.70
2018,09,14,00,16,11.70
2018,09,14,00,17,11.70
2018,09,14,00,18,11.70
2018,09,14,00,19,11.70
2018,09,14,00,20,11.70
2018,09,14,00,21,11.70
2018,09,14,00,22,11.70
2018,09,14,00,23,11.70
2018,09,14,00,24,11.70
2018,09,14,00,25,11.70
2018,09,14,00,26,11.70
2018,09,14,00,27,11.70
2018,09,14,00,28,11.70
2018,09,14,00,29,11.70
2018,09,14,00,30,11.60
2018,09,14,00,31,11.60
2018,09,14,00,32,11.60
2018,09,14,00,33,11.60
2018,09,14,00,34,11.60
2018,09,14,00,35,11.60
2018,09,14,00,36,11.60
2018,09,14,00,37,11.50
2018,09,14,00,38,11.50
2018,09,14,00,39,11.50
2018,09,14,00,40,11.50
2018,09,14,00,41,11.40
2018,09,14,00,42,11.40
2018,09,14,00,43,11.40
2018,09,14,00,44,11.40
2018,09,14,00,45,11.40
2018,09,14,00,46,11.40
2018,09,14,00,47,11.40
2018,09,14,00,48,11.30
2018,09,14,00,49,11.30
2018,09,14,00,50,11.30
2018,09,14,00,51,11.30
2018,09,14,00,52,11.30
2018,09,14,00,53,11.30
2018,09,14,00,54,11.30
2018,09,14,00,55,11.30
2018,09,14,00,56,11.20
2018,09,14,00,57,11.20
2018,09,14,00,58,11.20
2018,09,14,00,59,11.20
2018,09,14,01,00,11.20
2018,09,14,01,01,11.20
2018,09,14,01,02,11.20
2018,09,14,01,03,11.10
2018,09,14,01,04,11.10
2018,09,14,01,05,11.10
2018,09,14,01,06,11.10
2018,09,14,01,07,11.10
2018,09,14,01,08,11.10
2018,09,14,01,09,11.00
2018,09,14,01,10,11.00
2018,09,14,01,11,11.00
2018,09,14,01,12,11.00
2018,09,14,01,13,10.90
2018,09,14,01,14,10.90
2018,09,14,01,15,10.90
2018,09,14,01,16,10.90
2018,09,14,01,17,10.90
2018,09,14,01,18,10.80
2018,09,14,01,19,10.80
2018,09,14,01,20,10.80
2018,09,14,01,21,10.80
2018,09,14,01,22,10.80
2018,09,14,01,23,10.80
2018,09,14,01,24,10.80
2018,09,14,01,25,10.70
2018,09,14,01,26,10.70
2018,09,14,01,27,10.70
2018,09,14,01,28,10.70
2018,09,14,01,29,10.70
2018,09,14,01,30,10.60
2018,09,14,01,31,10.60
2018,09,14,01,32,10.60
2018,09,14,01,33,10.60
2018,09,14,01,34,10.60
2018,09,14,01,35,10.60
2018,09,14,01,36,10.50
2018,09,14,01,37,10.50
2018,09,14,01,38,10.50
2018,09,14,01,39,10.50
2018,09,14,01,40,10.40
2018,09,14,01,41,10.40
2018,09,14,01,42,10.40
2018,09,14,01,43,10.40
2018,09,14,01,44,10.40
2018,09,14,01,45,10.40
2018,09,14,01,46,10.30
2018,09,14,01,47,10.30
2018,09,14,01,48,10.30
2018,09,14,01,49,10.30
2018,09,14,01,50,10.30
2018,09,14,01,51,10.30
2018,09,14,01,52,10.30
2018,09,14,01,53,10.30
2018,09,14,01,54,10.20
2018,09,14,01,55,10.20
2018,09,14,01,56,10.20
2018,09,14,01,57,10.20
2018,09,14,01,58,10.20
2018,09,14,01,59,10.20
2018,09,14,02,00,10.20
2018,09,14,02,01,10.20
2018,09,14,02,02,10.20
2018,09,14,02,03,10.20
2018,09,14,02,04,10.10
2018,09,14,02,05,10.10
2018,09,14,02,06,10.10
2018,09,14,02,07,10.10
2018,09,14,02,08,10.10
2018,09,14,02,09,10.10
2018,09,14,02,10,10.10
2018,09,14,02,11,10.00
2018,09,14,02,12,10.00
2018,09,14,02,13,10.00
2018,09,14,02,14,10.00
2018,09,14,02,15,10.00
2018,09,14,02,16,10.00
2018,09,14,02,17,10.00
2018,09,14,02,18,9.90
2018,09,14,02,19,9.90
2018,09,14,02,20,9.90
2018,09,14,02,21,9.90
2018,09,14,02,22,9.90
2018,09,14,02,23,9.90
2018,09,14,02,24,9.90
2018,09,14,02,25,9.80
2018,09,14,02,26,9.80
2018,09,14,02,27,9.80
2018,09,14,02,28,9.80
2018,09,14,02,29,9.80
2018,09,14,02,30,9.80
2018,09,14,02,31,9.80
2018,09,14,02,32,9.80
2018,09,14,02,33,9.70
2018,09,14,02,34,9.70
2018,09,14,02,35,9.70
2018,09,14,02,36,9.70
2018,09,14,02,37,9.70
2018,09,14,02,38,9.70
2018,09,14,02,39,9.70
2018,09,14,02,40,9.70
2018,09,14,02,41,9.70
2018,09,14,02,42,9.70
2018,09,14,02,43,9.60
2018,09,14,02,44,9.60
2018,09,14,02,45,9.60
2018,09,14,02,46,9.60
2018,09,14,02,47,9.60
2018,09,14,02,48,9.60
2018,09,14,02,49,9.60
2018,09,14,02,50,9.60
2018,09,14,02,51,9.60
2018,09,14,02,52,9.60
2018,09,14,02,53,9.60
2018,09,14,02,54,9.50
2018,09,14,02,55,9.50
2018,09,14,02,56,9.50
2018,09,14,02,57,9.50
2018,09,14,02,58,9.50
2018,09,14,02,59,9.50
2018,09,14,03,00,9.50
2018,09,14,03,01,9.50
2018,09,14,03,02,9.40
2018,09,14,03,03,9.40
2018,09,14,03,04,9.40
2018,09,14,03,05,9.40
2018,09,14,03,06,9.40
2018,09,14,03,07,9.40
2018,09,14,03,08,9.40
2018,09,14,03,09,9.40
2018,09,14,03,10,9.40
2018,09,14,03,11,9.40
2018,09,14,03,12,9.40
2018,09,14,03,13,9.30
2018,09,14,03,14,9.30
2018,09,14,03,15,9.30
2018,09,14,03,16,9.30
2018,09,14,03,17,9.30
2018,09,14,03,18,9.30
2018,09,14,03,19,9.30
2018,09,14,03,20,9.30
2018,09,14,03,21,9.30
2018,09,14,03,22,9.30
2018,09,14,03,23,9.20
2018,09,14,03,24,9.20
2018,09,14,03,25,9.20
2018,09,14,03,26,9.20
2018,09,14,03,27,9.20
2018,09,14,03,28,9.20
2018,09,14,03,29,9.20
2018,09,14,03,30,9.20
2018,09,14,03,31,9.20
2018,09,14,03,32,9.20
2018,09,14,03,33,9.20
2018,09,14,03,34,9.20
2018,09,14,03,35,9.10
2018,09,14,03,36,9.10
2018,09,14,03,37,9.10
2018,09,14,03,38,9.10
2018,09,14,03,39,9.10
2018,09,14,03,40,9.10
2018,09,14,03,41,9.10
2018,09,14,03,42,9.10
2018,09,14,03,43,9.00
2018,09,14,03,44,9.00
2018,09,14,03,45,9.00
2018,09,14,03,46,9.00
2018,09,14,03,47,9.00
2018,09,14,03,48,8.90
2018,09,14,03,49,8.90
2018,09,14,03,50,8.90
2018,09,14,03,51,8.90
2018,09,14,03,52,8.90
2018,09,14,03,53,8.90
2018,09,14,03,54,8.90
2018,09,14,03,55,8.90
2018,09,14,03,56,8.80
2018,09,14,03,57,8.80
2018,09,14,03,58,8.80
2018,09,14,03,59,8.80
2018,09,14,04,00,8.80
2018,09,14,04,01,8.80
2018,09,14,04,02,8.80
2018,09,14,04,03,8.80
2018,09,14,04,04,8.70
2018,09,14,04,05,8.70
2018,09,14,04,06,8.70
2018,09,14,04,07,8.70
2018,09,14,04,08,8.70
2018,09,14,04,09,8.70
2018,09,14,04,10,8.70
2018,09,14,04,11,8.60
2018,09,14,04,12,8.60
2018,09,14,04,13,8.60
2018,09,14,04,14,8.60
2018,09,14,04,15,8.60
2018,09,14,04,16,8.60
2018,09,14,04,17,8.60
2018,09,14,04,18,8.50
2018,09,14,04,19,8.50
2018,09,14,04,20,8.50
2018,09,14,04,21,8.50
2018,09,14,04,22,8.50
2018,09,14,04,23,8.40
2018,09,14,04,24,8.40
2018,09,14,04,25,8.40
2018,09,14,04,26,8.40
2018,09,14,04,27,8.40
2018,09,14,04,28,8.40
2018,09,14,04,29,8.40
2018,09,14,04,30,8.40
2018,09,14,04,31,8.40
2018,09,14,04,32,8.40
2018,09,14,04,33,8.40
2018,09,14,04,34,8.40
2018,09,14,04,35,8.30
2018,09,14,04,36,8.30
2018,09,14,04,37,8.30
2018,09,14,04,38,8.30
2018,09,14,04,39,8.30
2018,09,14,04,40,8.30
2018,09,14,04,41,8.30
2018,09,14,04,42,8.20
2018,09,14,04,43,8.20
2018,09,14,04,44,8.20
2018,09,14,04,45,8.20
2018,09,14,04,46,8.20
2018,09,14,04,47,8.20
2018,09,14,04,48,8.20
2018,09,14,04,49,8.20
2018,09,14,04,50,8.10
2018,09,14,04,51,8.10
2018,09,14,04,52,8.10
2018,09,14,04,53,8.10
2018,09,14,04,54,8.10
2018,09,14,04,55,8.10
2018,09,14,04,56,8.10
2018,09,14,04,57,8.10
2018,09,14,04,58,8.10
2018,09,14,04,59,8.10
2018,09,14,05,00,8.10
2018,09,14,05,01,8.00
2018,09,14,05,02,8.00
2018,09,14,05,03,8.00
2018,09,14,05,04,8.00
2018,09,14,05,05,7.90
2018,09,14,05,06,7.90
2018,09,14,05,07,7.90
2018,09,14,05,08,7.90
2018,09,14,05,09,7.90
2018,09,14,05,10,7.90
2018,09,14,05,11,7.90
2018,09,14,05,12,7.90
2018,09,14,05,13,7.90
2018,09,14,05,14,7.90
2018,09,14,05,15,7.90
2018,09,14,05,16,7.90
2018,09,14,05,17,7.90
2018,09,14,05,18,7.90
2018,09,14,05,19,7.80
2018,09,14,05,20,7.80
2018,09,14,05,21,7.80
2018,09,14,05,22,7.80
2018,09,14,05,23,7.80
2018,09,14,05,24,7.80
2018,09,14,05,25,7.80
2018,09,14,05,26,7.80
2018,09,14,05,27,7.80
2018,09,14,05,28,7.80
2018,09,14,05,29,7.80
2018,09,14,05,30,7.80
2018,09,14,05,31,7.80
2018,09,14,05,32,7.80
2018,09,14,05,33,7.80
2018,09,14,05,34,7.80
2018,09,14,05,35,7.80
2018,09,14,05,36,7.80
2018,09,14,05,37,7.80
2018,09,14,05,38,7.70
2018,09,14,05,39,7.70
2018,09,14,05,40,7.70
2018,09,14,05,41,7.70
2018,09,14,05,42,7.70
2018,09,14,05,43,7.70
2018,09,14,05,44,7.70
2018,09,14,05,45,7.70
2018,09,14,05,46,7.70
2018,09,14,05,47,7.70
2018,09,14,05,48,7.70
2018,09,14,05,49,7.70
2018,09,14,05,50,7.70
2018,09,14,05,51,7.70
2018,09,14,05,52,7.70
2018,09,14,05,53,7.60
2018,09,14,05,54,7.60
2018,09,14,05,55,7.60
2018,09,14,05,56,7.60
2018,09,14,05,57,7.60
2018,09,14,05,58,7.60
2018,09,14,05,59,7.60
2018,09,14,06,00,7.60
2018,09,14,06,01,7.60
2018,09,14,06,02,7.60
2018,09,14,06,03,7.60
2018,09,14,06,04,7.60
2018,09,14,06,05,7.60
2018,09,14,06,06,7.60
2018,09,14,06,07,7.60
2018,09,14,06,08,7.60
2018,09,14,06,09,7.60
2018,09,14,06,10,7.60
2018,09,14,06,11,7.60
2018,09,14,06,12,7.60
2018,09,14,06,13,7.60
2018,09,14,06,14,7.60
2018,09,14,06,15,7.60
2018,09,14,06,16,7.60
2018,09,14,06,17,7.60
2018,09,14,06,18,7.60
2018,09,14,06,19,7.60
2018,09,14,06,20,7.60
2018,09,14,06,21,7.60
2018,09,14,06,22,7.60
2018,09,14,06,23,7.60
2018,09,14,06,24,7.60
2018,09,14,06,25,7.60
2018,09,14,06,26,7.60
2018,09,14,06,27,7.60
2018,09,14,06,28,7.60
2018,09,14,06,29,7.60
2018,09,14,06,30,7.60
2018,09,14,06,31,7.60
2018,09,14,06,32,7.60
2018,09,14,06,33,7.60
2018,09,14,06,34,7.60
2018,09,14,06,35,7.60
2018,09,14,06,36,7.60
2018,09,14,06,37,7.60
2018,09,14,06,38,7.60
2018,09,14,06,39,7.60
2018,09,14,06,40,7.60
2018,09,14,06,41,7.60
2018,09,14,06,42,7.60
2018,09,14,06,43,7.60
2018,09,14,06,44,7.60
2018,09,14,06,45,7.60
2018,09,14,06,46,7.60
2018,09,14,06,47,7.60
2018,09,14,06,48,7.60
2018,09,14,06,49,7.60
2018,09,14,06,50,7.60
2018,09,14,06,51,7.60
2018,09,14,06,52,7.60
2018,09,14,06,53,7.60
2018,09,14,06,54,7.60
2018,09,14,06,55,7.60
2018,09,14,06,56,7.60
2018,09,14,06,57,7.60
2018,09,14,06,58,7.60
2018,09,14,06,59,7.50
2018,09,14,07,00,7.50
2018,09,14,07,01,7.50
2018,09,14,07,02,7.50
2018,09,14,07,03,7.50
2018,09,14,07,04,7.50
2018,09,14,07,05,7.50
2018,09,14,07,06,7.50
2018,09,14,07,07,7.50
2018,09,14,07,08,7.50
2018,09,14,07,09,7.50
2018,09,14,07,10,7.50
2018,09,14,07,11,7.50
2018,09,14,07,12,7.50
2018,09,14,07,13,7.50
2018,09,14,07,14,7.50
2018,09,14,07,15,7.50
2018,09,14,07,16,7.50
2018,09,14,07,17,7.50
2018,09,14,07,18,7.50
2018,09,14,07,19,7.50
2018,09,14,07,20,7.50
2018,09,14,07,21,7.50
2018,09,14,07,22,7.50
2018,09,14,07,23,7.50
2018,09,14,07,24,7.50
2018,09,14,07,25,7.50
2018,09,14,07,26,7.50
2018,09,14,07,27,7.50
2018,09,14,07,28,7.50
2018,09,14,07,29,7.50
2018,09,14,07,30,7.50
2018,09,14,07,31,7.50
2018,09,14,07,32,7.50
2018,09,14,07,33,7.60
2018,09,14,07,34,7.60
2018,09,14,07,35,7.60
2018,09,14,07,36,7.60
2018,09,14,07,37,7.60
2018,09,14,07,38,7.60
2018,09,14,07,39,7.60
2018,09,14,07,40,7.60
2018,09,14,07,41,7.60
2018,09,14,07,42,7.60
2018,09,14,07,43,7.70
2018,09,14,07,44,7.70
2018,09,14,07,45,7.70
2018,09,14,07,46,7.70
2018,09,14,07,47,7.70
2018,09,14,07,48,7.80
2018,09,14,07,49,7.80
2018,09,14,07,50,7.80
2018,09,14,07,51,7.80
2018,09,14,07,52,7.80
2018,09,14,07,53,7.80
2018,09,14,07,54,7.80
2018,09,14,07,55,7.80
2018,09,14,07,56,7.90
2018,09,14,07,57,7.90
2018,09,14,07,58,7.90
2018,09,14,07,59,7.90
2018,09,14,08,00,7.90
2018,09,14,08,01,8.00
2018,09,14,08,02,8.00
2018,09,14,08,03,8.10
2018,09,14,08,04,8.10
2018,09,14,08,05,8.10
2018,09,14,08,06,8.10
2018,09,14,08,07,8.20
2018,09,14,08,08,8.20
2018,09,14,08,09,8.20
2018,09,14,08,10,8.20
2018,09,14,08,11,8.20
2018,09,14,08,12,8.30
2018,09,14,08,13,8.30
2018,09,14,08,14,8.30
2018,09,14,08,15,8.30
2018,09,14,08,16,8.30
2018,09,14,08,17,8.40
2018,09,14,08,18,8.40
2018,09,14,08,19,8.40
2018,09,14,08,20,8.40
2018,09,14,08,21,8.50
2018,09,14,08,22,8.50
2018,09,14,08,23,8.60
2018,09,14,08,24,8.60
2018,09,14,08,25,8.60
2018,09,14,08,26,8.70
2018,09,14,08,27,8.70
2018,09,14,08,28,8.70
2018,09,14,08,29,8.80
2018,09,14,08,30,8.80
2018,09,14,08,31,8.80
2018,09,14,08,32,8.90
2018,09,14,08,33,8.90
2018,09,14,08,34,9.00
2018,09,14,08,35,9.00
2018,09,14,08,36,9.10
2018,09,14,08,37,9.10
2018,09,14,08,38,9.20
2018,09,14,08,39,9.20
2018,09,14,08,40,9.30
2018,09,14,08,41,9.30
2018,09,14,08,42,9.30
2018,09,14,08,43,9.40
2018,09,14,08,44,9.50
2018,09,14,08,45,9.50
2018,09,14,08,46,9.60
2018,09,14,08,47,9.60
2018,09,14,08,48,9.60
2018,09,14,08,49,9.70
2018,09,14,08,50,9.70
2018,09,14,08,51,9.80
2018,09,14,08,52,9.80
2018,09,14,08,53,9.90
2018,09,14,08,54,9.90
2018,09,14,08,55,10.00
2018,09,14,08,56,10.10
2018,09,14,08,57,10.10
2018,09,14,08,58,10.20
2018,09,14,08,59,10.20
2018,09,14,09,00,10.30
2018,09,14,09,01,10.30
2018,09,14,09,02,10.30
2018,09,14,09,03,10.40
2018,09,14,09,04,10.40
2018,09,14,09,05,10.50
2018,09,14,09,06,10.50
2018,09,14,09,07,10.60
2018,09,14,09,08,10.60
2018,09,14,09,09,10.70
2018,09,14,09,10,10.70
2018,09,14,09,11,10.80
2018,09,14,09,12,10.80
2018,09,14,09,13,10.80
2018,09,14,09,14,10.90
2018,09,14,09,15,10.90
2018,09,14,09,16,11.00
2018,09,14,09,17,11.10
2018,09,14,09,18,11.10
2018,09,14,09,19,11.20
2018,09,14,09,20,11.30
2018,09,14,09,21,11.40
2018,09,14,09,22,11.50
2018,09,14,09,23,11.60
2018,09,14,09,24,11.70
2018,09,14,09,25,11.80
2018,09,14,09,26,11.90
2018,09,14,09,27,12.00
2018,09,14,09,28,12.10
2018,09,14,09,29,12.20
2018,09,14,09,30,12.20
2018,09,14,09,31,12.30
2018,09,14,09,32,12.40
2018,09,14,09,33,12.40
2018,09,14,09,34,12.50
2018,09,14,09,35,12.60
2018,09,14,09,36,12.70
2018,09,14,09,37,12.70
2018,09,14,09,38,12.80
2018,09,14,09,39,12.80
2018,09,14,09,40,12.90
2018,09,14,09,41,12.90
2018,09,14,09,42,13.00
2018,09,14,09,43,13.10
2018,09,14,09,44,13.20
2018,09,14,09,45,13.20
2018,09,14,09,46,13.20
2018,09,14,09,47,13.30
2018,09,14,09,48,13.30
2018,09,14,09,49,13.40
2018,09,14,09,50,13.40
2018,09,14,09,51,13.50
2018,09,14,09,52,13.60
2018,09,14,09,53,13.70
2018,09,14,09,54,13.80
2018,09,14,09,55,13.80
2018,09,14,09,56,13.90
2018,09,14,09,57,14.00
2018,09,14,09,58,14.00
2018,09,14,09,59,14.10
2018,09,14,10,00,14.20
2018,09,14,10,01,14.20
2018,09,14,10,02,14.20
2018,09,14,10,03,14.20
2018,09,14,10,04,14.30
2018,09,14,10,05,14.30
2018,09,14,10,06,14.30
2018,09,14,10,07,14.30
2018,09,14,10,08,14.40
2018,09,14,10,09,14.40
2018,09,14,10,10,14.40
2018,09,14,10,11,14.40
2018,09,14,10,12,14.40
2018,09,14,10,13,14.40
2018,09,14,10,14,14.40
2018,09,14,10,15,14.40
2018,09,14,10,16,14.40
2018,09,14,10,17,14.50
2018,09,14,10,18,14.50
2018,09,14,10,19,14.60
2018,09,14,10,20,14.70
2018,09,14,10,21,14.70
2018,09,14,10,22,14.80
2018,09,14,10,23,14.80
2018,09,14,10,24,14.90
2018,09,14,10,25,15.00
2018,09,14,10,26,15.00
2018,09,14,10,27,15.10
2018,09,14,10,28,15.10
2018,09,14,10,29,15.10
2018,09,14,10,30,15.20
2018,09,14,10,31,15.20
2018,09,14,10,32,15.20
2018,09,14,10,33,15.30
2018,09,14,10,34,15.30
2018,09,14,10,35,15.40
2018,09,14,10,36,15.40
2018,09,14,10,37,15.50
2018,09,14,10,38,15.50
2018,09,14,10,39,15.50
2018,09,14,10,40,15.50
2018,09,14,10,41,15.40
2018,09,14,10,42,15.40
2018,09,14,10,43,15.30
2018,09,14,10,44,15.40
2018,09,14,10,45,15.40
2018,09,14,10,46,15.40
2018,09,14,10,47,15.50
2018,09,14,10,48,15.50
2018,09,14,10,49,15.50
2018,09,14,10,50,15.60
2018,09,14,10,51,15.60
2018,09,14,10,52,15.60
2018,09,14,10,53,15.60
2018,09,14,10,54,15.60
2018,09,14,10,55,15.70
2018,09,14,10,56,15.70
2018,09,14,10,57,15.70
2018,09,14,10,58,15.80
2018,09,14,10,59,15.80
2018,09,14,11,00,15.90
2018,09,14,11,01,15.90
2018,09,14,11,02,16.00
2018,09,14,11,03,16.00
2018,09,14,11,04,16.10
2018,09,14,11,05,16.10
2018,09,14,11,06,16.20
2018,09,14,11,07,16.20
2018,09,14,11,08,16.30
2018,09,14,11,09,16.30
2018,09,14,11,10,16.30
2018,09,14,11,11,16.30
2018,09,14,11,12,16.30
2018,09,14,11,13,16.40
2018,09,14,11,14,16.40
2018,09,14,11,15,16.40
2018,09,14,11,16,16.50
2018,09,14,11,17,16.60
2018,09,14,11,18,16.70
2018,09,14,11,19,16.80
2018,09,14,11,20,16.90
2018,09,14,11,21,17.00
2018,09,14,11,22,17.10
2018,09,14,11,23,17.20
2018,09,14,11,24,17.30
2018,09,14,11,25,17.30
2018,09,14,11,26,17.30
2018,09,14,11,27,17.20
2018,09,14,11,28,17.20
2018,09,14,11,29,17.20
2018,09,14,11,30,17.20
2018,09,14,11,31,17.30
2018,09,14,11,32,17.30
2018,09,14,11,33,17.30
2018,09,14,11,34,17.30
2018,09,14,11,35,17.30
2018,09,14,11,36,17.20
2018,09,14,11,37,17.10
2018,09,14,11,38,17.10
2018,09,14,11,39,17.10
2018,09,14,11,40,17.10
2018,09,14,11,41,17.10
2018,09,14,11,42,17.00
2018,09,14,11,43,16.90
2018,09,14,11,44,16.90
2018,09,14,11,45,16.80
2018,09,14,11,46,16.70
2018,09,14,11,47,16.50
2018,09,14,11,48,16.50
2018,09,14,11,49,16.40
2018,09,14,11,50,16.40
2018,09,14,11,51,16.40
2018,09,14,11,52,16.40
2018,09,14,11,53,16.40
2018,09,14,11,54,16.40
2018,09,14,11,55,16.40
2018,09,14,11,56,16.40
2018,09,14,11,57,16.40
2018,09,14,11,58,16.40
2018,09,14,11,59,16.40
2018,09,14,12,00,16.40
2018,09,14,12,01,16.40
2018,09,14,12,02,16.50
2018,09,14,12,03,16.50
2018,09,14,12,04,16.50
2018,09,14,12,05,16.50
2018,09,14,12,06,16.50
2018,09,14,12,07,16.50
2018,09,14,12,08,16.50
2018,09,14,12,09,16.50
2018,09,14,12,10,16.40
2018,09,14,12,11,16.40
2018,09,14,12,12,16.40
2018,09,14,12,13,16.40
2018,09,14,12,14,16.30
2018,09,14,12,15,16.30
2018,09,14,12,16,16.30
2018,09,14,12,17,16.30
2018,09,14,12,18,16.20
2018,09,14,12,19,16.20
2018,09,14,12,20,16.20
2018,09,14,12,21,16.20
2018,09,14,12,22,16.20
2018,09,14,12,23,16.20
2018,09,14,12,24,16.20
2018,09,14,12,25,16.10
2018,09,14,12,26,16.00
2018,09,14,12,27,16.00
2018,09,14,12,28,15.90
2018,09,14,12,29,15.80
2018,09,14,12,30,15.70
2018,09,14,12,31,15.70
2018,09,14,12,32,15.60
2018,09,14,12,33,15.60
2018,09,14,12,34,15.50
2018,09,14,12,35,15.50
2018,09,14,12,36,15.60
2018,09,14,12,37,15.60
2018,09,14,12,38,15.60
2018,09,14,12,39,15.60
2018,09,14,12,40,15.60
2018,09,14,12,41,15.60
2018,09,14,12,42,15.70
2018,09,14,12,43,15.70
2018,09,14,12,44,15.70
2018,09,14,12,45,15.70
2018,09,14,12,46,15.70
2018,09,14,12,47,15.70
2018,09,14,12,48,15.70
2018,09,14,12,49,15.70
2018,09,14,12,50,15.70
2018,09,14,12,51,15.70
2018,09,14,12,52,15.70
2018,09,14,12,53,15.70
2018,09,14,12,54,15.80
2018,09,14,12,55,15.80
2018,09,14,12,56,15.90
2018,09,14,12,57,15.90
2018,09,14,12,58,16.00
2018,09,14,12,59,16.00
2018,09,14,13,00,16.00
2018,09,14,13,01,16.00
2018,09,14,13,02,15.90
2018,09,14,13,03,15.90
2018,09,14,13,04,15.90
2018,09,14,13,05,15.90
2018,09,14,13,06,15.80
2018,09,14,13,07,15.80
2018,09,14,13,08,15.80
2018,09,14,13,09,15.80
2018,09,14,13,10,15.80
2018,09,14,13,11,15.80
2018,09,14,13,12,15.80
2018,09,14,13,13,15.80
2018,09,14,13,14,15.80
2018,09,14,13,15,15.80
2018,09,14,13,16,15.80
2018,09,14,13,17,15.80
2018,09,14,13,18,15.80
2018,09,14,13,19,15.80
2018,09,14,13,20,15.80
2018,09,14,13,21,15.80
2018,09,14,13,22,15.80
2018,09,14,13,23,15.80
2018,09,14,13,24,15.80
2018,09,14,13,25,15.90
2018,09,14,13,26,15.90
2018,09,14,13,27,15.90
2018,09,14,13,28,15.90
2018,09,14,13,29,15.90
2018,09,14,13,30,15.90
2018,09,14,13,31,15.90
2018,09,14,13,32,15.90
2018,09,14,13,33,15.90
2018,09,14,13,34,15.80
2018,09,14,13,35,15.80
2018,09,14,13,36,15.80
2018,09,14,13,37,15.80
2018,09,14,13,38,15.80
2018,09,14,13,39,15.80
2018,09,14,13,40,15.80
2018,09,14,13,41,15.70
2018,09,14,13,42,15.70
2018,09,14,13,43,15.70
2018,09,14,13,44,15.70
2018,09,14,13,45,15.80
2018,09,14,13,46,15.80
2018,09,14,13,47,15.90
2018,09,14,13,48,16.00
2018,09,14,13,49,16.00
2018,09,14,13,50,16.10
2018,09,14,13,51,16.00
2018,09,14,13,52,16.00
2018,09,14,13,53,16.00
2018,09,14,13,54,16.00
2018,09,14,13,55,16.00
2018,09,14,13,56,16.10
2018,09,14,13,57,16.10
2018,09,14,13,58,16.20
2018,09,14,13,59,16.30
2018,09,14,14,00,16.50
2018,09,14,14,01,16.60
2018,09,14,14,02,16.80
2018,09,14,14,03,17.00
2018,09,14,14,04,17.10
2018,09,14,14,05,17.10
2018,09,14,14,06,17.00
2018,09,14,14,07,17.00
2018,09,14,14,08,17.00
2018,09,14,14,09,17.00
2018,09,14,14,10,17.00
2018,09,14,14,11,17.00
2018,09,14,14,12,17.00
2018,09,14,14,13,17.00
2018,09,14,14,14,17.10
2018,09,14,14,15,17.10
2018,09,14,14,16,17.10
2018,09,14,14,17,17.10
2018,09,14,14,18,17.10
2018,09,14,14,19,17.00
2018,09,14,14,20,16.90
2018,09,14,14,21,16.90
2018,09,14,14,22,16.80
2018,09,14,14,23,16.80
2018,09,14,14,24,16.80
2018,09,14,14,25,16.90
2018,09,14,14,26,17.00
2018,09,14,14,27,17.10
2018,09,14,14,28,17.20
2018,09,14,14,29,17.30
2018,09,14,14,30,17.50
2018,09,14,14,31,17.50
2018,09,14,14,32,17.40
2018,09,14,14,33,17.40
2018,09,14,14,34,17.50
2018,09,14,14,35,17.50
2018,09,14,14,36,17.60
2018,09,14,14,37,17.60
2018,09,14,14,38,17.60
2018,09,14,14,39,17.50
2018,09,14,14,40,17.40
2018,09,14,14,41,17.30
2018,09,14,14,42,17.30
2018,09,14,14,43,17.30
2018,09,14,14,44,17.30
2018,09,14,14,45,17.30
2018,09,14,14,46,17.30
2018,09,14,14,47,17.40
2018,09,14,14,48,17.40
2018,09,14,14,49,17.50
2018,09,14,14,50,17.60
2018,09,14,14,51,17.70
2018,09,14,14,52,17.70
2018,09,14,14,53,17.60
2018,09,14,14,54,17.60
2018,09,14,14,55,17.50
2018,09,14,14,56,17.50
2018,09,14,14,57,17.40
2018,09,14,14,58,17.30
2018,09,14,14,59,17.30
2018,09,14,15,00,17.20
2018,09,14,15,01,17.20
2018,09,14,15,02,17.20
2018,09,14,15,03,17.10
2018,09,14,15,04,17.00
2018,09,14,15,05,16.90
2018,09,14,15,06,16.80
2018,09,14,15,07,16.80
2018,09,14,15,08,16.70
2018,09,14,15,09,16.60
2018,09,14,15,10,16.60
2018,09,14,15,11,16.40
2018,09,14,15,12,16.40
2018,09,14,15,13,16.30
2018,09,14,15,14,16.30
2018,09,14,15,15,16.20
2018,09,14,15,16,16.20
2018,09,14,15,17,16.20
2018,09,14,15,18,16.20
2018,09,14,15,19,16.20
2018,09,14,15,20,16.10
2018,09,14,15,21,16.10
2018,09,14,15,22,16.10
2018,09,14,15,23,16.10
2018,09,14,15,24,16.00
2018,09,14,15,25,16.00
2018,09,14,15,26,16.00
2018,09,14,15,27,16.00
2018,09,14,15,28,16.00
2018,09,14,15,29,15.90
2018,09,14,15,30,16.00
2018,09,14,15,31,16.00
2018,09,14,15,32,16.00
2018,09,14,15,33,15.90
2018,09,14,15,34,15.90
2018,09,14,15,35,15.80
2018,09,14,15,36,15.80
2018,09,14,15,37,15.80
2018,09,14,15,38,15.80
2018,09,14,15,39,15.70
2018,09,14,15,40,15.70
2018,09,14,15,41,15.70
2018,09,14,15,42,15.70
2018,09,14,15,43,15.70
2018,09,14,15,44,15.70
2018,09,14,15,45,15.70
2018,09,14,15,46,15.70
2018,09,14,15,47,15.70
2018,09,14,15,48,15.80
2018,09,14,15,49,15.80
2018,09,14,15,50,15.80
2018,09,14,15,51,15.80
2018,09,14,15,52,15.80
2018,09,14,15,53,15.70
2018,09,14,15,54,15.70
2018,09,14,15,55,15.70
2018,09,14,15,56,15.70
2018,09,14,15,57,15.70
2018,09,14,15,58,15.70
2018,09,14,15,59,15.70
2018,09,14,16,00,15.70
2018,09,14,16,01,15.70
2018,09,14,16,02,15.60
2018,09,14,16,03,15.60
2018,09,14,16,04,15.60
2018,09,14,16,05,15.50
2018,09,14,16,06,15.50
2018,09,14,16,07,15.40
2018,09,14,16,08,15.40
2018,09,14,16,09,15.30
2018,09,14,16,10,15.30
2018,09,14,16,11,15.30
2018,09,14,16,12,15.30
2018,09,14,16,13,15.30
2018,09,14,16,14,15.30
2018,09,14,16,15,15.30
2018,09,14,16,16,15.30
2018,09,14,16,17,15.30
2018,09,14,16,18,15.30
2018,09,14,16,19,15.30
2018,09,14,16,20,15.30
2018,09,14,16,21,15.30
2018,09,14,16,22,15.30
2018,09,14,16,23,15.30
2018,09,14,16,24,15.30
2018,09,14,16,25,15.20
2018,09,14,16,26,15.20
2018,09,14,16,27,15.20
2018,09,14,16,28,15.20
2018,09,14,16,29,15.20
2018,09,14,16,30,15.20
2018,09,14,16,31,15.20
2018,09,14,16,32,15.20
2018,09,14,16,33,15.20
2018,09,14,16,34,15.20
2018,09,14,16,35,15.20
2018,09,14,16,36,15.20
2018,09,14,16,37,15.20
2018,09,14,16,38,15.20
2018,09,14,16,39,15.30
2018,09,14,16,40,15.30
2018,09,14,16,41,15.30
2018,09,14,16,42,15.30
2018,09,14,16,43,15.20
2018,09,14,16,44,15.20
2018,09,14,16,45,15.20
2018,09,14,16,46,15.20
2018,09,14,16,47,15.30
2018,09,14,16,48,15.30
2018,09,14,16,49,15.30
2018,09,14,16,50,15.30
2018,09,14,16,51,15.40
2018,09,14,16,52,15.40
2018,09,14,16,53,15.40
2018,09,14,16,54,15.40
2018,09,14,16,55,15.40
2018,09,14,16,56,15.40
2018,09,14,16,57,15.40
2018,09,14,16,58,15.40
2018,09,14,16,59,15.40
2018,09,14,17,00,15.40
2018,09,14,17,01,15.50
2018,09,14,17,02,15.50
2018,09,14,17,03,15.50
2018,09,14,17,04,15.50
2018,09,14,17,05,15.60
2018,09,14,17,06,15.60
2018,09,14,17,07,15.60
2018,09,14,17,08,15.60
2018,09,14,17,09,15.60
2018,09,14,17,10,15.60
2018,09,14,17,11,15.60
2018,09,14,17,12,15.50
2018,09,14,17,13,15.50
2018,09,14,17,14,15.50
2018,09,14,17,15,15.60
2018,09,14,17,16,15.60
2018,09,14,17,17,15.60
2018,09,14,17,18,15.60
2018,09,14,17,19,15.60
2018,09,14,17,20,15.60
2018,09,14,17,21,15.60
2018,09,14,17,22,15.60
2018,09,14,17,23,15.50
2018,09,14,17,24,15.50
2018,09,14,17,25,15.50
2018,09,14,17,26,15.50
2018,09,14,17,27,15.50
2018,09,14,17,28,15.50
2018,09,14,17,29,15.50
2018,09,14,17,30,15.60
2018,09,14,17,31,15.60
2018,09,14,17,32,15.60
2018,09,14,17,33,15.60
2018,09,14,17,34,15.60
2018,09,14,17,35,15.60
2018,09,14,17,36,15.50